Content
SEND FEEDBACK

Daily
Averages
Monthly
Summary
United States of America

UMATAC, GUAM


Home > North America > United States > Guam
Elevation: 190 feet     Latitude: 13 17N     Longitude: 144 40E

WEATHER
 
SELECT A DAY
Number of Records: 341,794;   Date Range: 1/1/95 - 7/23/14
 
SHARE

PRINT THIS DATA

[ ← Previous Day ]
WEATHER ALMANAC - OCTOBER 9, 2013
[ Next Day → ]
[ °C ]   °F
Weather ElementAverageHighLow
Temperature80.5 °F86 °F (10:23 am)73.4 °F (5:39 pm)
Dewpoint77.2 °F80.6 °F (1:15 pm)71.6 °F (12:24 pm)
Humidity90 %100 % (7:13 pm)78 % (12:58 pm)
Barometer29.72 in29.78 in (8:33 am)29.66 in (2:58 pm)
Wind Speed9.7 mph16.1 mph (1:08 pm)
Wind Gust21.9 mph (11:43 pm)
Weather ElementAverage
Visibility8.4 mi
Wind DirectionWNW (293.7 °)

Weather ElementTotal
Precipitation1.07 in
Cooling Degree Days14.7 (Base 65)
Growing Degree Days29.7 (Base 50)
Averaged from 99 records on October 9, 2013
WEATHER CONDITIONS BREAKOUT
WIND DIRECTION BREAKOUT
WEATHER BY HOUR - OCTOBER 9, 2013
[ °C ]   °F
Local TimeTemperatureDewpointHumidityBarometerVisibilityWind DirectionWind SpeedGust SpeedPrecipitationEventsConditions
1:58 AM77.0 °F72.3 °F85 %29.70 in10.0 miCalmClear
2:58 AM77.4 °F75.2 °F93 %29.70 in10.0 miCalmScattered Clouds
3:03 AM77.0 °F75.2 °F94 %29.73 in10.0 miCalmMostly Cloudy
3:28 AM78.8 °F77.0 °F94 %29.73 in10.0 miCalmMostly Cloudy
3:58 AM77.0 °F75.6 °F95 %29.70 in10.0 miCalmPartly Cloudy
4:58 AM76.3 °F75.4 °F97 %29.70 in10.0 miCalmClear
5:58 AM76.5 °F75.2 °F96 %29.71 in10.0 miWSW (250°)4.6 mphClear
6:58 AM78.1 °F76.6 °F95 %29.72 in10.0 miCalmClear
7:58 AM82.0 °F78.3 °F88 %29.74 in10.0 miWest (280°)5.8 mphClear
8:33 AM84.2 °F77.0 °F79 %29.78 in10.0 miWNW (300°)6.9 mphMostly Cloudy
8:38 AM84.2 °F78.8 °F84 %29.78 in10.0 miNW (320°)6.9 mphScattered Clouds
8:43 AM84.2 °F78.8 °F84 %29.78 in10.0 miNW (310°)8.1 mphMostly Cloudy
8:50 AM82.4 °F78.8 °F89 %29.78 in10.0 miNW (310°)8.1 mphLight Drizzle
8:58 AM82.9 °F78.6 °F87 %29.75 in10.0 miWNW (290°)10.4 mph0.00 inRainLight Rain
9:03 AM80.6 °F77.0 °F89 %29.78 in10.0 miWest (280°)9.2 mphMostly Cloudy
9:08 AM82.4 °F78.8 °F89 %29.78 in10.0 miWNW (290°)8.1 mphMostly Cloudy
9:23 AM82.4 °F77.0 °F84 %29.78 in10.0 miWNW (300°)9.2 mphLight Drizzle
9:38 AM82.4 °F77.0 °F84 %29.78 in10.0 miWNW (290°)12.7 mphScattered Clouds
9:58 AM83.1 °F77.5 °F83 %29.75 in10.0 miWNW (300°)10.4 mph0.00 inMostly Cloudy
10:23 AM86.0 °F78.8 °F79 %29.77 in10.0 miNNW (330°)10.4 mphMostly Cloudy
10:28 AM86.0 °F78.8 °F79 %29.77 in10.0 miNNW (330°)11.5 mphMostly Cloudy
10:34 AM86.0 °F78.8 °F79 %29.77 in10.0 miNNW (330°)12.7 mphLight Drizzle
10:44 AM84.2 °F78.8 °F84 %29.77 in10.0 miNNW (330°)10.4 mphScattered Clouds
10:48 AM84.2 °F78.8 °F84 %29.78 in10.0 miNNW (330°)12.7 mphLight Drizzle
10:58 AM82.4 °F78.3 °F87 %29.74 in10.0 miNNW (330°)12.7 mph0.00 inRainLight Rain
11:08 AM82.4 °F77.0 °F84 %29.77 in10.0 miNNW (330°)13.8 mphLight Drizzle
11:09 AM82.4 °F77.0 °F84 %29.77 in10.0 miNNW (330°)13.8 mphMostly Cloudy
11:19 AM82.4 °F77.0 °F84 %29.76 in4.0 miNNW (330°)11.5 mphHaze
11:24 AM82.4 °F77.0 °F84 %29.76 in3.0 miNNW (330°)11.5 mphHaze
11:29 AM84.2 °F78.8 °F84 %29.75 in6.0 miNNW (330°)10.4 mphHaze
11:40 AM82.4 °F78.8 °F89 %29.75 in6.0 miNW (320°)10.4 mphHaze
11:41 AM82.4 °F78.8 °F89 %29.75 in6.0 miNW (320°)11.5 mphRainLight Rain
11:58 AM81.7 °F79.3 °F93 %29.71 in10.0 miNW (320°)12.7 mph0.01 inRainLight Rain
12:02 PM78.8 °F75.2 °F89 %29.74 in10.0 miNW (320°)11.5 mphScattered Clouds
12:24 PM77.0 °F71.6 °F83 %29.73 in10.0 miNNW (330°)13.8 mphLight Drizzle
12:33 PM82.4 °F75.2 °F79 %29.72 in10.0 miNW (320°)10.4 mphPartly Cloudy
12:38 PM84.2 °F77.0 °F79 %29.72 in10.0 miNW (320°)12.7 mphRainLight Rain
12:49 PM86.0 °F78.8 °F79 %29.72 in10.0 miNNW (330°)11.5 mphScattered Clouds
12:57 PM84.2 °F77.0 °F79 %29.72 in10.0 miNNW (330°)9.2 mphLight Drizzle
12:58 PM85.3 °F77.9 °F78 %29.69 in10.0 miNNW (330°)9.2 mph0.00 inLight Drizzle
1:08 PM84.2 °F78.8 °F84 %29.71 in7.0 miNW (310°)16.1 mphLight Drizzle
1:09 PM84.2 °F78.8 °F84 %29.71 in6.0 miNW (310°)16.1 mphHaze
1:10 PM84.2 °F78.8 °F84 %29.71 in4.0 miNW (320°)13.8 mphRainLight Rain
1:15 PM84.2 °F80.6 °F89 %29.71 in1.2 miWNW (300°)11.5 mphRainLight Rain
1:20 PM82.4 °F78.8 °F89 %29.70 in1.0 miWNW (300°)9.2 mphRainHeavy Rain
1:25 PM80.6 °F78.8 °F94 %29.71 in2.0 miNW (310°)10.4 mphRainRain
1:30 PM80.6 °F78.8 °F94 %29.71 in9.0 miNNW (330°)10.4 mphRainHeavy Rain
1:43 PM80.6 °F78.8 °F94 %29.70 in10.0 miNNW (330°)10.4 mphMostly Cloudy
1:48 PM82.4 °F78.8 °F89 %29.70 in10.0 miNNW (330°)10.4 mphMostly Cloudy
1:53 PM82.4 °F78.8 °F89 %29.70 in10.0 miNW (320°)10.4 mphMostly Cloudy
1:58 PM82.0 °F79.3 °F91 %29.67 in10.0 miNW (310°)10.4 mph0.19 inScattered Clouds
2:08 PM82.4 °F78.8 °F89 %29.70 in10.0 miNW (320°)11.5 mphMostly Cloudy
2:33 PM82.4 °F78.8 °F89 %29.70 in10.0 miNNW (330°)12.7 mphScattered Clouds
2:44 PM82.4 °F78.8 °F89 %29.69 in10.0 miNNW (330°)10.4 mphRainLight Rain
2:55 PM82.4 °F78.8 °F89 %29.69 in10.0 miNW (320°)11.5 mphPartly Cloudy
2:58 PM82.4 °F78.8 °F89 %29.66 in10.0 miNNW (330°)12.7 mph0.00 inPartly Cloudy
3:10 PM82.4 °F78.8 °F89 %29.69 in10.0 miNNW (340°)12.7 mphLight Drizzle
3:19 PM82.4 °F78.8 °F89 %29.69 in10.0 miNNW (330°)13.8 mphScattered Clouds
3:26 PM82.4 °F78.8 °F89 %29.69 in4.0 miNW (310°)12.7 mph20.7 mphRainLight Rain
3:31 PM80.6 °F78.8 °F94 %29.69 in2.5 miWNW (300°)11.5 mph20.7 mphRainLight Rain
3:36 PM80.6 °F78.8 °F94 %29.70 in3.0 miWNW (300°)12.7 mph20.7 mphRainLight Rain
3:51 PM78.8 °F77.0 °F94 %29.69 in10.0 miNW (310°)12.7 mphRainLight Rain
3:58 PM78.8 °F76.6 °F93 %29.67 in10.0 miWNW (300°)11.5 mph0.13 inRainLight Rain
4:03 PM78.8 °F77.0 °F94 %29.70 in10.0 miNW (310°)12.7 mphPartly Cloudy
4:58 PM76.1 °F73.9 °F93 %29.67 in10.0 miNW (310°)11.5 mph0.00 inScattered Clouds
5:02 PM75.2 °F73.4 °F94 %29.71 in10.0 miNW (320°)11.5 mphLight Drizzle
5:14 PM78.8 °F77.0 °F94 %29.71 in10.0 miNW (310°)10.4 mphPartly Cloudy
5:34 PM77.0 °F75.2 °F94 %29.71 in9.0 miWNW (300°)8.1 mphMostly Cloudy
5:39 PM73.4 °F71.6 °F94 %29.71 in9.0 miNW (310°)9.2 mphMostly Cloudy
5:44 PM73.4 °F71.6 °F94 %29.71 in10.0 miNW (310°)9.2 mphMostly Cloudy
5:49 PM75.2 °F73.4 °F94 %29.71 in10.0 miNW (310°)9.2 mphOvercast
5:58 PM80.2 °F79.0 °F96 %29.68 in10.0 miNW (320°)9.2 mph0.00 inOvercast
6:15 PM80.6 °F78.8 °F94 %29.72 in10.0 miNW (320°)8.1 mphRainLight Rain
6:27 PM80.6 °F78.8 °F94 %29.72 in10.0 miNNW (340°)10.4 mphMostly Cloudy
6:47 PM80.6 °F78.8 °F94 %29.72 in10.0 miNNW (340°)11.5 mphMostly Cloudy
6:57 PM80.6 °F77.0 °F89 %29.72 in10.0 miNorth (350°)8.1 mphLight Drizzle
6:58 PM79.9 °F77.5 °F93 %29.69 in10.0 miNorth (350°)8.1 mph0.00 inLight Drizzle
7:13 PM78.8 °F78.8 °F100 %29.73 in10.0 miNorth (360°)9.2 mphRainLight Rain
7:33 PM80.6 °F78.8 °F94 %29.73 in10.0 miNorth (360°)9.2 mphMostly Cloudy
7:54 PM80.6 °F77.0 °F89 %29.73 in10.0 miNorth (350°)10.4 mphScattered Clouds
7:58 PM79.7 °F77.4 °F93 %29.70 in10.0 miNNW (340°)11.5 mph0.10 inScattered Clouds
8:58 PM73.9 °F72.9 °F96 %29.71 in10.0 miNW (320°)6.9 mphPartly Cloudy
9:58 PM78.3 °F77.0 °F96 %29.71 in10.0 miNW (320°)10.4 mphClear
10:20 PM78.8 °F77.0 °F94 %29.73 in8.0 miNW (310°)5.8 mphRainLight Rain
10:30 PM78.8 °F77.0 °F94 %29.72 in2.0 miWNW (290°)11.5 mphRainHeavy Rain
10:35 PM78.8 °F77.0 °F94 %29.72 in3.0 miNW (310°)10.4 mphRainLight Rain
10:45 PM77.0 °F77.0 °F100 %29.73 in6.0 miNW (320°)4.6 mphRainRain
10:55 PM77.0 °F77.0 °F100 %29.72 in8.0 miWNW (300°)2.3 mphRainLight Rain
10:58 PM77.5 °F76.3 °F96 %29.69 in8.0 miWNW (290°)4.6 mph0.14 inRainLight Rain
11:08 PM78.8 °F77.0 °F94 %29.72 in10.0 miNW (310°)11.5 mph17.3 mphRainLight Rain
11:13 PM78.8 °F77.0 °F94 %29.72 in10.0 miNNW (330°)11.5 mph17.3 mphRainLight Rain
11:18 PM78.8 °F77.0 °F94 %29.71 in7.0 miNW (310°)11.5 mphRainLight Rain
11:23 PM77.0 °F77.0 °F100 %29.71 in2.0 miWNW (300°)12.7 mphRainHeavy Rain
11:28 PM77.0 °F75.2 °F94 %29.71 in1.5 miWNW (290°)11.5 mphRainHeavy Rain
11:33 PM77.0 °F75.2 °F94 %29.71 in2.5 miWNW (290°)9.2 mphRainLight Rain
11:38 PM77.0 °F75.2 °F94 %29.71 in9.0 miWest (280°)5.8 mphRainLight Rain
11:43 PM77.0 °F75.2 °F94 %29.71 in10.0 miNW (320°)16.1 mph21.9 mphRainLight Rain
11:53 PM77.0 °F75.2 °F94 %29.72 in1.2 miNW (310°)10.4 mph21.9 mphRainHeavy Rain
11:58 PM76.8 °F75.4 °F95 %29.69 in0.8 miWNW (290°)10.4 mph19.6 mph0.50 inRainHeavy Rain
Hourly data recorded from PGUA, located miles away from Umatac, Guam







STORIES FROM OUR PARTNERS